Time,TemperatureF,DewpointF,PressureIn,WindDirection,WindDirectionDegrees,WindSpeedMPH,WindSpeedGustMPH,Humidity,HourlyPrecipIn,Conditions,Clouds,dailyrainin,SoftwareType,DateUTC
2013-03-10 00:05:00,57.6,56.0,29.69,NW,308,4.0,12.0,94,0.31,,,0.01,weatherlink.com 1.10,2013-03-10 06:05:00,
2013-03-10 00:20:00,57.3,56.0,29.68,NW,319,4.0,16.0,94,0.16,,,0.02,weatherlink.com 1.10,2013-03-10 06:20:00,
2013-03-10 00:35:00,57.1,55.0,29.69,NW,319,9.0,13.0,93,0.10,,,0.02,weatherlink.com 1.10,2013-03-10 06:35:00,
2013-03-10 00:50:00,57.1,55.0,29.70,North,352,9.0,10.0,92,0.03,,,0.03,weatherlink.com 1.10,2013-03-10 06:50:00,
2013-03-10 01:05:00,57.2,54.0,29.70,NW,312,6.0,17.0,88,0.03,,,0.04,weatherlink.com 1.10,2013-03-10 07:05:00,
2013-03-10 01:20:00,56.8,53.0,29.73,NW,314,5.0,8.0,88,0.04,,,0.06,weatherlink.com 1.10,2013-03-10 07:20:00,
2013-03-10 01:35:00,55.8,53.0,29.70,NNW,327,6.0,7.0,89,0.06,,,0.08,weatherlink.com 1.10,2013-03-10 07:35:00,
2013-03-10 01:50:00,55.5,52.0,29.71,NW,319,3.0,11.0,89,0.05,,,0.08,weatherlink.com 1.10,2013-03-10 07:50:00,
2013-03-10 03:05:00,55.4,53.0,29.71,West,276,4.0,9.0,90,0.04,,,0.08,weatherlink.com 1.10,2013-03-10 08:05:00,
2013-03-10 03:20:00,55.5,53.0,29.73,WNW,300,3.0,7.0,91,0.01,,,0.08,weatherlink.com 1.10,2013-03-10 08:20:00,
2013-03-10 03:35:00,55.8,53.0,29.73,NW,323,4.0,7.0,91,0.00,,,0.08,weatherlink.com 1.10,2013-03-10 08:35:00,
2013-03-10 03:51:00,56.3,53.0,29.72,WNW,303,10.0,17.0,89,0.00,,,0.08,weatherlink.com 1.10,2013-03-10 08:51:00,
2013-03-10 04:06:00,56.4,52.0,29.72,NNW,328,3.0,13.0,86,0.00,,,0.08,weatherlink.com 1.10,2013-03-10 09:06:00,
2013-03-10 04:21:00,56.0,51.0,29.72,NW,310,3.0,11.0,84,0.00,,,0.08,weatherlink.com 1.10,2013-03-10 09:21:00,
2013-03-10 04:36:00,55.5,51.0,29.74,NNE,15,2.0,6.0,84,0.01,,,0.09,weatherlink.com 1.10,2013-03-10 09:36:00,
2013-03-10 04:52:00,54.7,49.0,29.74,North,6,3.0,8.0,82,0.01,,,0.09,weatherlink.com 1.10,2013-03-10 09:52:00,
2013-03-10 05:06:00,54.9,49.0,29.73,WNW,296,6.0,10.0,79,0.01,,,0.09,weatherlink.com 1.10,2013-03-10 10:06:00,
2013-03-10 05:21:00,55.3,46.0,29.75,NNW,333,8.0,11.0,70,0.01,,,0.09,weatherlink.com 1.10,2013-03-10 10:21:00,
2013-03-10 05:36:00,54.8,45.0,29.75,WNW,291,2.0,11.0,70,0.00,,,0.09,weatherlink.com 1.10,2013-03-10 10:36:00,
2013-03-10 05:51:00,54.7,45.0,29.75,NNW,332,4.0,10.0,69,0.00,,,0.09,weatherlink.com 1.10,2013-03-10 10:51:00,
2013-03-10 06:06:00,54.0,44.0,29.75,NW,321,3.0,9.0,70,0.00,,,0.09,weatherlink.com 1.10,2013-03-10 11:06:00,
2013-03-10 06:21:00,53.1,44.0,29.76,NW,319,3.0,6.0,72,0.00,,,0.09,weatherlink.com 1.10,2013-03-10 11:21:00,
2013-03-10 06:36:00,52.7,43.0,29.77,NW,306,2.0,7.0,69,0.00,,,0.09,weatherlink.com 1.10,2013-03-10 11:36:00,
2013-03-10 06:51:00,52.2,42.0,29.77,WNW,297,2.0,6.0,69,0.00,,,0.09,weatherlink.com 1.10,2013-03-10 11:51:00,
2013-03-10 07:06:00,51.9,42.0,29.78,WNW,300,0.0,3.0,69,0.00,,,0.09,weatherlink.com 1.10,2013-03-10 12:06:00,
2013-03-10 07:21:00,52.1,41.0,29.79,WNW,297,4.0,7.0,66,0.00,,,0.09,weatherlink.com 1.10,2013-03-10 12:21:00,
2013-03-10 07:36:00,52.0,40.0,29.79,WNW,303,3.0,5.0,64,0.00,,,0.09,weatherlink.com 1.10,2013-03-10 12:36:00,
2013-03-10 07:51:00,52.1,40.0,29.80,NW,314,5.0,7.0,63,0.00,,,0.09,weatherlink.com 1.10,2013-03-10 12:51:00,
2013-03-10 08:06:00,52.2,39.0,29.81,WSW,245,2.0,5.0,61,0.00,,,0.09,weatherlink.com 1.10,2013-03-10 13:06:00,
2013-03-10 08:21:00,52.7,36.0,29.83,NW,306,7.0,11.0,54,0.00,,,0.09,weatherlink.com 1.10,2013-03-10 13:21:00,
2013-03-10 08:36:00,53.0,37.0,29.84,WNW,288,4.0,16.0,56,0.00,,,0.09,weatherlink.com 1.10,2013-03-10 13:36:00,
2013-03-10 08:52:00,52.8,37.0,29.85,NW,311,15.0,15.0,55,0.00,,,0.09,weatherlink.com 1.10,2013-03-10 13:52:00,
2013-03-10 09:06:00,52.1,38.0,29.87,WNW,284,3.0,17.0,58,0.00,,,0.09,weatherlink.com 1.10,2013-03-10 14:06:00,
2013-03-10 09:22:00,51.5,35.0,29.88,WNW,298,10.0,23.0,54,0.00,,,0.09,weatherlink.com 1.10,2013-03-10 14:22:00,
2013-03-10 09:37:00,51.6,35.0,29.89,WNW,290,13.0,19.0,53,0.00,,,0.09,weatherlink.com 1.10,2013-03-10 14:37:00,
2013-03-10 09:52:00,52.5,35.0,29.89,WNW,301,12.0,23.0,52,0.00,,,0.09,weatherlink.com 1.10,2013-03-10 14:52:00,
2013-03-10 10:07:00,52.1,33.0,29.89,West,266,10.0,23.0,49,0.00,,,0.09,weatherlink.com 1.10,2013-03-10 15:07:00,
2013-03-10 10:22:00,52.2,33.0,29.89,North,351,7.0,23.0,49,0.00,,,0.09,weatherlink.com 1.10,2013-03-10 15:22:00,
2013-03-10 10:37:00,52.4,33.0,29.91,NNW,333,20.0,20.0,48,0.00,,,0.09,weatherlink.com 1.10,2013-03-10 15:37:00,
2013-03-10 10:52:00,52.6,33.0,29.92,NW,312,4.0,23.0,47,0.00,,,0.09,weatherlink.com 1.10,2013-03-10 15:52:00,
2013-03-10 11:07:00,52.7,32.0,29.92,WNW,295,10.0,30.0,45,0.00,,,0.09,weatherlink.com 1.10,2013-03-10 16:07:00,
2013-03-10 11:22:00,53.8,32.0,29.93,WNW,295,18.0,22.0,44,0.00,,,0.09,weatherlink.com 1.10,2013-03-10 16:22:00,
2013-03-10 11:37:00,53.4,31.0,29.93,WNW,300,16.0,27.0,43,0.00,,,0.09,weatherlink.com 1.10,2013-03-10 16:37:00,
2013-03-10 11:52:00,54.1,32.0,29.92,NW,316,10.0,25.0,43,0.00,,,0.09,weatherlink.com 1.10,2013-03-10 16:52:00,
2013-03-10 12:07:00,54.6,33.0,29.93,NW,315,8.0,26.0,44,0.00,,,0.09,weatherlink.com 1.10,2013-03-10 17:07:00,
2013-03-10 12:22:00,55.5,33.0,29.93,NW,306,11.0,23.0,43,0.00,,,0.09,weatherlink.com 1.10,2013-03-10 17:22:00,
2013-03-10 12:37:00,55.5,33.0,29.94,NW,316,15.0,25.0,42,0.00,,,0.09,weatherlink.com 1.10,2013-03-10 17:37:00,
2013-03-10 12:52:00,56.4,32.0,29.94,NW,326,13.0,23.0,40,0.00,,,0.09,weatherlink.com 1.10,2013-03-10 17:52:00,
2013-03-10 13:07:00,56.7,32.0,29.95,North,349,10.0,22.0,40,0.00,,,0.09,weatherlink.com 1.10,2013-03-10 18:07:00,
2013-03-10 13:22:00,57.2,32.0,29.94,WNW,294,6.0,18.0,39,0.00,,,0.09,weatherlink.com 1.10,2013-03-10 18:22:00,
2013-03-10 13:37:00,58.1,33.0,29.94,NNW,333,4.0,18.0,39,0.00,,,0.09,weatherlink.com 1.10,2013-03-10 18:37:00,
2013-03-10 13:52:00,58.4,32.0,29.93,NW,314,4.0,23.0,37,0.00,,,0.09,weatherlink.com 1.10,2013-03-10 18:52:00,
2013-03-10 14:07:00,58.3,33.0,29.93,NNW,343,8.0,19.0,38,0.00,,,0.09,weatherlink.com 1.10,2013-03-10 19:07:00,
2013-03-10 14:22:00,58.3,33.0,29.92,WNW,291,13.0,23.0,39,0.00,,,0.09,weatherlink.com 1.10,2013-03-10 19:22:00,
2013-03-10 14:37:00,58.6,32.0,29.93,NNW,347,17.0,24.0,37,0.00,,,0.09,weatherlink.com 1.10,2013-03-10 19:37:00,
2013-03-10 14:52:00,59.0,33.0,29.92,NW,314,7.0,18.0,37,0.00,,,0.09,weatherlink.com 1.10,2013-03-10 19:52:00,
2013-03-10 15:07:00,59.4,33.0,29.91,WNW,293,7.0,21.0,37,0.00,,,0.09,weatherlink.com 1.10,2013-03-10 20:07:00,
2013-03-10 15:22:00,59.3,32.0,29.91,NNE,25,13.0,18.0,36,0.00,,,0.09,weatherlink.com 1.10,2013-03-10 20:22:00,
2013-03-10 15:37:00,59.2,33.0,29.92,WNW,286,19.0,24.0,37,0.00,,,0.09,weatherlink.com 1.10,2013-03-10 20:37:00,
2013-03-10 15:52:00,59.8,34.0,29.92,NW,311,11.0,20.0,38,0.00,,,0.09,weatherlink.com 1.10,2013-03-10 20:52:00,
2013-03-10 16:07:00,59.8,32.0,29.92,NW,311,12.0,19.0,35,0.00,,,0.09,weatherlink.com 1.10,2013-03-10 21:07:00,
2013-03-10 16:22:00,59.6,32.0,29.92,WNW,283,12.0,19.0,35,0.00,,,0.09,weatherlink.com 1.10,2013-03-10 21:22:00,
2013-03-10 16:37:00,59.7,33.0,29.92,North,355,10.0,19.0,36,0.00,,,0.09,weatherlink.com 1.10,2013-03-10 21:37:00,
2013-03-10 16:52:00,60.1,32.0,29.92,NNW,328,12.0,17.0,35,0.00,,,0.09,weatherlink.com 1.10,2013-03-10 21:52:00,
2013-03-10 17:07:00,60.4,32.0,29.92,NNE,23,16.0,19.0,34,0.00,,,0.09,weatherlink.com 1.10,2013-03-10 22:07:00,
2013-03-10 17:22:00,59.8,32.0,29.92,NNE,16,15.0,20.0,35,0.00,,,0.09,weatherlink.com 1.10,2013-03-10 22:22:00,
2013-03-10 17:37:00,59.9,31.0,29.92,NW,306,11.0,19.0,33,0.00,,,0.09,weatherlink.com 1.10,2013-03-10 22:37:00,
2013-03-10 17:52:00,59.8,31.0,29.93,NNW,335,9.0,14.0,34,0.00,,,0.09,weatherlink.com 1.10,2013-03-10 22:52:00,
2013-03-10 18:07:00,59.3,31.0,29.93,NNE,13,9.0,19.0,34,0.00,,,0.09,weatherlink.com 1.10,2013-03-10 23:07:00,
2013-03-10 18:22:00,58.6,29.0,29.94,West,262,9.0,21.0,33,0.00,,,0.09,weatherlink.com 1.10,2013-03-10 23:22:00,
2013-03-10 18:37:00,58.4,30.0,29.94,NW,312,9.0,15.0,34,0.00,,,0.09,weatherlink.com 1.10,2013-03-10 23:37:00,
2013-03-10 18:52:00,58.2,29.0,29.95,WNW,300,15.0,16.0,33,0.00,,,0.09,weatherlink.com 1.10,2013-03-10 23:52:00,
2013-03-10 19:07:00,56.6,29.0,29.96,West,281,2.0,9.0,35,0.00,,,0.09,weatherlink.com 1.10,2013-03-11 00:07:00,
2013-03-10 19:22:00,55.7,29.0,29.97,NNE,28,5.0,12.0,36,0.00,,,0.09,weatherlink.com 1.10,2013-03-11 00:22:00,
2013-03-10 19:38:00,55.0,29.0,29.98,NW,304,2.0,13.0,37,0.00,,,0.09,weatherlink.com 1.10,2013-03-11 00:38:00,
2013-03-10 19:54:00,53.6,29.0,29.99,WNW,303,1.0,5.0,39,0.00,,,0.09,weatherlink.com 1.10,2013-03-11 00:54:00,
2013-03-10 20:08:00,52.5,29.0,30.00,NW,314,2.0,5.0,41,0.00,,,0.09,weatherlink.com 1.10,2013-03-11 01:08:00,
2013-03-10 20:23:00,51.4,29.0,30.00,WNW,297,0.0,1.0,42,0.00,,,0.09,weatherlink.com 1.10,2013-03-11 01:23:00,
2013-03-10 20:38:00,50.3,30.0,30.01,NW,314,1.0,3.0,46,0.00,,,0.09,weatherlink.com 1.10,2013-03-11 01:38:00,
2013-03-10 20:53:00,49.1,29.0,30.01,NW,312,0.0,1.0,47,0.00,,,0.09,weatherlink.com 1.10,2013-03-11 01:53:00,
2013-03-10 21:08:00,47.9,30.0,30.00,WNW,302,1.0,3.0,50,0.00,,,0.09,weatherlink.com 1.10,2013-03-11 02:08:00,
2013-03-10 21:23:00,47.8,30.0,30.00,NW,317,1.0,3.0,50,0.00,,,0.09,weatherlink.com 1.10,2013-03-11 02:23:00,
2013-03-10 21:38:00,47.2,30.0,30.02,NW,312,1.0,3.0,51,0.00,,,0.09,weatherlink.com 1.10,2013-03-11 02:38:00,
2013-03-10 21:53:00,46.5,30.0,30.03,NW,307,1.0,2.0,53,0.00,,,0.09,weatherlink.com 1.10,2013-03-11 02:53:00,
2013-03-10 22:08:00,45.8,30.0,30.04,NW,307,1.0,1.0,55,0.00,,,0.09,weatherlink.com 1.10,2013-03-11 03:08:00,
2013-03-10 22:23:00,45.9,30.0,30.05,WNW,295,0.0,2.0,55,0.00,,,0.09,weatherlink.com 1.10,2013-03-11 03:23:00,
2013-03-10 22:38:00,45.5,30.0,30.07,West,276,0.0,2.0,56,0.00,,,0.09,weatherlink.com 1.10,2013-03-11 03:38:00,
2013-03-10 22:53:00,43.6,31.0,30.08,WSW,250,0.0,1.0,62,0.00,,,0.09,weatherlink.com 1.10,2013-03-11 03:53:00,
2013-03-10 23:08:00,43.4,31.0,30.09,WSW,243,0.0,2.0,61,0.00,,,0.09,weatherlink.com 1.10,2013-03-11 04:08:00,
2013-03-10 23:23:00,43.6,30.0,30.10,WNW,302,0.0,4.0,60,0.00,,,0.09,weatherlink.com 1.10,2013-03-11 04:23:00,
2013-03-10 23:38:00,41.3,31.0,30.10,WNW,302,0.0,1.0,68,0.00,,,0.09,weatherlink.com 1.10,2013-03-11 04:38:00,
2013-03-10 23:53:00,38.2,30.0,30.11,WNW,302,0.0,1.0,73,0.00,,,0.09,weatherlink.com 1.10,2013-03-11 04:53:00,